TJS-4

Last updated on Jan. 27, 2020, 4:38 a.m. UTC

1 44637U 19070A   20026.86498278 -.00000177  00000-0  00000-0 0  9999
2 44637   0.0532 255.1537 0005479  83.4561 182.0182  1.00272519  1174
UTC
Height (km)
Latitude
Longitude
Inclination
Orbital Period
UTC large
Height (km)
Speed (km/s)
/
Latitude / Longitude
Inclination (degrees)
Orbital Period (minutes)
Azimuth
Elevation
Range (km)
Doppler Factor
iOS Compass Heading
iOS Angle

Next 30 passes for location: Hong Kong

Rise time Rise Azimuth (degrees) Set time Set Azimuth (degrees) Duration Max altitude (degrees)

No matching passes for this satellites